Theta_e
327 328 328 328 328 327 326 324 323 324 324 323 321 320 323 325 321 320 327 331 328 330 333 333 334 334 334 334 334 332 331 337 349 354 352 349 350 349 344 338 340 347 349 347 346 346 345 343 342 342 343 344 345 346 348 351 355 359 361 359 357 356 355 353 355 355 352 346 345 343 339 335 335 337 340 343 343 333 323 320 320 320 319 318 320 320 318
327 328 328 328 327 326 326 325 325 325 325 324 323 323 324 325 323 324 328 330 331 332 332 332 333 333 333 332 332 332 330 336 347 354 353 350 349 349 345 339 337 340 344 345 345 346 344 341 341 342 342 343 343 345 346 348 351 357 359 358 356 356 355 353 353 353 351 349 349 349 346 340 336 337 339 343 345 339 328 321 320 320 318 319 321 321 319
325 328 328 327 327 325 324 325 326 326 325 325 324 324 325 325 325 326 327 327 330 332 332 333 332 331 332 332 333 333 333 336 343 350 351 349 349 349 346 342 338 337 342 345 345 344 341 338 340 341 340 342 342 344 346 346 348 354 355 354 356 356 355 353 353 352 351 351 351 351 350 347 341 338 339 344 346 341 331 323 321 319 318 320 321 322 321
322 326 327 327 327 326 323 323 325 326 325 324 324 325 326 325 324 326 324 323 328 331 331 332 332 331 331 333 334 335 336 339 343 348 350 349 349 349 346 343 340 338 340 342 341 340 339 338 340 340 340 342 342 342 345 346 349 353 354 353 353 353 353 353 353 351 350 351 350 351 352 351 348 342 338 341 346 343 334 325 322 319 319 321 323 323 322
321 325 326 326 325 322 320 322 326 327 326 326 326 326 327 327 326 325 323 324 329 331 330 332 333 330 330 335 338 338 341 345 347 349 350 350 350 349 345 342 340 339 341 343 343 340 339 339 339 340 341 341 341 342 343 346 349 352 353 352 350 350 354 354 352 348 349 351 349 350 351 352 351 348 341 340 344 345 337 327 323 320 319 323 325 324 323
322 325 326 326 323 319 321 325 328 328 327 327 326 326 327 327 327 327 326 328 332 332 331 332 334 332 333 337 340 340 343 349 351 351 350 350 351 352 349 347 345 345 349 350 346 340 338 339 340 340 341 340 341 342 342 344 347 349 350 349 348 352 355 354 350 347 349 350 349 349 351 352 352 351 346 342 344 346 340 328 323 321 319 323 327 326 325
324 325 326 323 320 322 327 331 332 329 328 328 327 328 328 328 328 328 329 331 331 331 332 333 333 333 335 338 342 345 346 347 349 350 350 351 352 352 352 352 350 348 348 346 344 339 338 340 340 340 341 341 341 341 342 343 344 345 346 345 348 353 354 350 347 348 349 349 349 349 350 351 352 352 349 345 345 347 339 326 322 322 319 321 325 326 325
327 326 324 322 324 327 329 333 334 332 332 330 327 326 326 327 329 329 329 330 329 331 333 332 332 337 341 342 343 343 341 340 342 343 345 349 351 352 352 349 347 346 342 340 340 338 338 340 340 340 340 341 341 342 342 343 343 344 345 345 348 350 350 347 348 349 349 349 350 350 351 352 351 351 350 348 347 348 340 326 321 322 320 321 324 324 325
330 326 322 324 326 326 329 336 338 337 336 335 333 330 330 330 329 328 330 330 329 330 331 331 335 340 342 341 339 338 338 336 335 336 340 344 348 350 346 342 342 342 339 338 338 339 339 339 339 340 340 340 342 342 342 343 343 343 344 345 346 347 347 347 349 349 348 349 351 351 351 352 352 351 351 349 349 349 341 326 321 322 321 322 323 322 323
329 326 325 326 324 324 331 338 338 337 336 337 337 335 334 334 329 329 330 331 331 333 331 332 340 341 338 336 334 335 338 336 334 336 340 342 345 347 344 343 344 341 338 339 339 338 339 339 339 340 341 341 342 342 343 343 343 344 345 346 346 347 347 348 349 350 350 350 351 351 351 352 352 351 351 349 349 349 340 327 324 326 323 321 322 321 320
327 326 327 327 323 328 338 339 336 336 336 336 336 331 330 334 336 334 330 330 333 334 332 336 343 341 335 333 333 337 341 341 339 340 342 344 347 349 347 346 345 341 338 339 339 338 339 340 341 341 340 339 338 338 338 340 341 344 345 346 347 348 348 349 350 351 351 351 351 351 351 352 352 351 350 348 348 349 342 329 325 328 326 323 322 321 321
325 326 327 326 326 334 340 336 334 337 336 337 334 327 328 339 345 342 340 337 335 332 334 342 344 339 334 334 338 342 343 341 341 343 345 348 349 349 347 344 341 339 339 339 339 340 341 340 339 337 335 334 332 332 334 336 339 342 344 346 348 348 348 351 352 352 351 351 351 351 351 351 351 349 348 347 347 347 341 330 325 328 331 329 327 324 324
325 326 325 325 329 337 338 335 336 337 335 335 332 328 334 344 344 342 343 342 341 339 342 344 342 340 340 342 344 343 342 344 346 347 347 348 349 350 349 345 340 338 340 340 339 339 337 335 334 333 331 331 330 331 333 336 339 343 346 347 348 349 351 352 352 352 351 350 351 351 350 350 350 348 347 347 346 343 339 334 329 330 331 331 327 324 323
324 325 325 326 330 336 337 335 337 336 334 333 333 335 341 344 343 343 343 340 340 343 344 343 342 342 344 345 345 346 347 350 351 352 353 354 355 354 348 343 341 341 341 339 336 335 333 332 332 332 332 331 331 332 334 337 340 343 345 347 348 350 352 353 352 351 351 350 350 350 349 349 348 347 347 346 345 343 341 338 337 335 332 328 325 324 325
324 325 326 326 329 335 337 336 337 337 336 336 338 341 344 344 343 345 345 343 341 342 344 345 346 346 349 351 353 354 355 356 357 357 357 356 353 349 345 345 346 344 339 337 336 336 336 335 334 333 332 332 332 333 334 336 338 339 342 344 345 348 351 351 351 351 350 350 350 349 349 348 347 348 348 346 344 343 341 341 340 337 333 328 325 327 329
324 322 326 330 333 336 337 337 337 338 337 337 338 340 343 344 344 346 348 349 346 346 349 351 351 353 355 356 356 356 355 355 355 354 353 351 349 348 347 347 345 341 338 339 340 340 338 337 336 335 334 333 334 334 334 334 335 336 337 338 340 345 348 349 350 351 350 349 349 348 348 348 348 347 346 345 343 342 341 340 337 334 331 328 327 330 332
328 327 331 337 338 338 337 337 338 336 335 335 336 338 341 342 343 345 348 350 349 351 353 354 354 356 356 355 356 356 356 356 356 355 353 352 350 347 344 342 341 340 340 340 339 337 337 336 335 335 335 335 335 334 335 335 335 336 337 338 341 346 348 349 349 349 349 348 348 347 347 348 348 346 343 342 343 342 341 338 333 331 331 330 330 334 335
334 335 338 339 339 338 337 336 335 334 333 333 334 336 338 339 341 343 345 346 348 349 350 352 353 354 353 354 355 356 357 358 358 358 357 356 353 348 344 341 340 339 338 337 336 337 337 336 335 335 335 335 335 335 335 336 338 340 342 344 346 349 349 349 348 348 348 347 347 346 346 346 347 345 343 342 342 342 341 336 330 330 331 332 334 337 337
332 333 337 338 338 338 337 336 334 333 332 333 333 335 336 337 339 341 341 342 344 344 345 346 347 347 349 352 353 353 353 352 352 352 352 351 349 347 344 341 338 337 337 337 336 335 335 335 334 334 334 334 335 336 338 338 340 342 345 346 347 348 348 348 347 347 347 346 346 345 345 345 345 344 343 342 341 340 338 333 329 330 333 334 336 336 336
334 336 339 339 338 336 334 333 333 333 332 332 332 333 335 335 336 337 337 338 341 343 344 343 342 342 344 346 348 349 348 346 343 342 341 339 338 338 337 336 335 334 333 334 334 333 334 336 336 335 337 338 339 340 341 341 342 342 343 344 345 345 346 346 346 346 346 345 345 345 345 345 343 342 342 341 340 337 333 330 329 332 334 335 336 336 336
336 337 338 337 337 335 331 330 330 330 330 331 331 332 333 334 335 336 335 336 338 341 343 345 346 345 344 343 344 345 345 342 337 334 334 335 334 334 334 333 332 331 333 334 335 336 338 340 341 341 342 342 342 341 342 341 341 340 340 342 343 344 345 345 345 345 345 344 344 344 344 343 342 342 341 340 339 335 331 330 331 332 333 334 336 337 336
335 335 336 337 337 336 333 330 329 328 329 330 329 330 331 332 333 335 335 334 335 337 339 342 346 347 347 346 344 342 342 339 333 330 329 329 329 329 330 329 329 330 334 336 337 339 341 343 343 343 342 342 342 341 341 341 340 339 340 341 343 343 344 344 343 343 344 343 343 343 343 342 342 341 341 340 338 335 332 331 332 333 335 336 336 335 332
332 332 335 336 335 334 331 329 326 326 327 328 328 329 330 330 330 332 333 333 333 333 334 336 338 341 343 343 342 342 340 336 331 329 327 326 327 328 328 327 328 328 330 333 335 337 339 341 342 342 341 341 340 340 340 339 339 339 340 342 342 342 342 342 342 342 342 342 342 341 341 340 340 339 339 338 337 335 335 335 335 336 336 334 331 330 329
330 330 332 333 331 330 328 327 326 325 325 326 326 327 328 329 328 328 330 330 330 330 331 332 333 335 336 336 336 338 338 335 331 329 327 326 328 330 329 329 330 330 332 334 336 337 338 339 339 340 340 339 339 339 338 338 339 341 342 342 342 342 341 341 341 341 341 341 340 338 337 337 336 336 336 335 336 336 336 336 335 334 331 328 327 329 330
329 329 329 330 329 328 327 327 327 326 325 325 324 325 325 327 326 326 326 326 327 328 329 330 330 331 332 333 334 334 335 334 333 333 334 332 332 333 333 331 330 332 334 335 336 337 337 337 337 337 337 337 337 337 338 340 342 343 342 340 340 341 341 340 339 338 337 337 336 335 335 334 334 334 333 332 331 331 330 330 331 330 330 330 330 330 328
329 328 328 327 327 327 327 327 327 325 325 325 324 324 324 323 324 325 325 324 324 325 326 327 328 327 328 329 330 331 332 332 333 335 338 338 338 337 336 333 332 332 332 332 333 333 333 333 333 333 335 336 338 339 340 342 343 343 342 339 338 338 338 337 336 335 335 336 335 333 331 330 330 330 327 325 324 324 326 328 331 331 330 331 329 327 325
326 328 328 328 327 327 327 327 327 327 326 325 324 324 323 323 324 325 325 323 323 323 324 324 325 326 326 326 327 327 328 330 331 332 333 336 337 337 335 334 333 333 332 331 331 331 331 332 333 334 336 338 339 340 340 339 339 338 338 338 337 335 334 334 334 334 333 333 332 330 327 326 326 326 325 324 325 326 328 330 331 330 330 328 326 324 324
321 322 323 323 324 324 324 325 324 324 325 325 325 324 323 323 324 325 324 323 322 322 322 322 323 324 325 325 326 327 327 328 328 327 327 330 333 334 334 334 334 334 334 334 332 332 332 334 334 336 338 338 338 339 338 335 332 330 332 335 335 333 331 332 335 336 334 330 327 326 325 326 327 329 330 332 332 332 332 332 331 330 327 326 325 324 324
319 319 319 319 320 320 321 323 324 324 324 324 323 323 323 322 323 324 324 324 323 321 320 319 319 322 324 324 324 326 328 327 327 326 325 325 327 329 331 333 334 334 334 334 334 333 333 333 334 335 336 337 338 337 335 331 328 326 328 332 334 333 331 332 334 336 335 331 327 326 327 329 331 334 336 336 335 333 332 332 331 329 327 325 325 325 325
316 316 318 318 317 316 317 318 320 322 324 323 323 323 323 322 322 323 324 324 324 324 322 319 316 318 321 322 323 325 326 325 325 325 324 322 321 324 326 329 334 338 338 337 335 334 335 336 336 336 337 338 337 334 331 327 324 323 324 327 330 331 332 332 334 336 335 332 328 328 331 333 334 335 336 335 332 330 330 330 330 329 327 326 326 326 326
313 314 314 314 314 315 316 317 317 319 321 322 323 323 323 322 321 321 323 324 325 326 326 324 321 320 320 320 322 324 324 323 322 325 324 320 318 320 321 323 329 333 334 335 336 336 337 339 338 337 337 336 334 331 329 325 323 323 325 325 327 328 327 327 330 333 333 330 327 329 333 335 335 334 333 332 330 329 330 330 328 327 327 326 326 326 326
314 314 314 314 315 316 318 319 320 320 321 321 320 321 321 321 320 318 319 322 325 326 326 327 326 324 323 323 324 325 325 324 325 327 326 320 315 315 318 319 321 323 324 327 333 337 339 340 339 338 337 335 332 329 327 325 325 327 329 328 327 327 326 324 325 327 327 327 328 330 331 332 331 330 331 331 330 329 329 328 327 326 326 325 325 325 325
319 319 319 319 319 320 319 320 321 322 321 320 320 321 321 321 321 319 319 320 322 324 325 326 326 326 325 326 327 327 327 327 328 328 326 320 314 313 315 317 318 319 320 321 326 333 338 339 339 338 336 334 331 329 327 326 327 327 328 328 328 327 326 326 326 326 327 329 330 330 329 328 328 329 330 330 329 328 327 327 326 325 325 324 324 325 325
321 322 321 320 321 323 323 322 323 323 322 321 322 323 323 323 322 322 323 322 322 323 324 325 325 326 326 326 327 327 327 327 327 327 325 322 318 315 315 316 317 318 319 318 320 328 333 336 337 338 336 332 329 328 327 326 326 326 326 328 330 330 329 329 328 329 331 331 330 327 326 326 328 329 328 328 327 326 326 326 325 324 324 324 324 324 323
320 321 322 322 323 324 324 323 323 324 323 323 323 323 323 323 323 323 324 324 323 323 324 324 325 325 326 326 326 327 326 326 326 326 326 326 325 323 322 321 322 323 324 321 319 320 325 330 334 337 336 332 330 330 329 328 328 328 328 330 332 333 332 331 330 331 332 332 330 328 328 328 328 327 327 326 326 325 325 324 324 324 323 323 323 323 322
321 321 322 323 323 324 323 323 323 323 323 323 323 323 323 323 323 323 323 323 323 323 323 323 324 325 325 325 326 326 326 326 326 326 326 326 327 327 327 326 327 328 329 327 324 324 326 329 333 336 336 334 332 332 331 331 331 331 330 331 333 332 331 331 331 330 329 329 330 329 329 327 326 325 325 325 325 324 324 324 323 323 323 322 322 321 320
322 321 322 323 323 323 323 323 323 323 322 322 322 322 322 322 322 322 322 322 323 323 323 323 323 323 324 324 324 324 325 325 325 325 326 326 327 327 327 327 328 329 329 329 328 329 329 330 332 335 336 335 334 333 333 332 333 332 332 332 332 331 330 330 330 329 328 329 329 328 326 324 324 324 324 324 324 324 323 323 323 322 322 321 321 320 320
322 322 322 323 323 323 323 322 322 322 322 322 321 321 322 322 322 322 322 322 322 323 323 323 323 323 324 324 324 324 324 325 324 325 326 326 326 327 327 327 327 328 328 329 329 329 330 330 331 333 334 334 333 333 332 332 332 332 331 331 331 329 329 329 330 329 329 328 327 326 324 324 324 324 324 324 323 323 323 322 322 321 321 321 320 319 319
322 322 322 322 322 322 322 322 322 321 321 321 321 321 321 321 322 322 322 322 323 323 323 323 323 323 323 324 324 324 324 324 324 325 325 325 326 326 326 326 327 327 327 327 328 329 329 330 330 331 332 332 332 332 331 331 331 331 330 329 328 327 327 329 329 329 328 327 326 325 324 324 324 323 323 323 322 322 321 321 320 319 319 319 318 318 317
321 321 321 321 321 321 321 321 321 321 320 320 321 321 321 321 322 322 322 322 323 323 323 323 323 322 323 323 323 324 324 324 324 324 325 325 326 326 326 326 326 326 326 327 328 328 327 328 329 329 329 329 330 329 328 328 329 328 327 327 327 327 328 329 328 326 325 325 324 323 323 323 322 322 321 321 320 320 319 318 318 317 317 317 316 316 316
321 321 321 321 321 321 321 320 320 320 321 321 321 321 321 321 321 322 322 322 322 323 322 322 322 322 322 322 323 323 323 324 324 324 324 324 325 325 325 326 326 326 327 327 327 326 326 326 327 327 328 328 329 327 326 326 326 326 326 327 327 327 327 327 326 325 324 324 323 322 321 321 320 320 319 319 318 318 317 317 317 316 316 316 316 316 315
320 321 320 320 320 321 321 321 321 321 321 321 321 321 321 321 321 321 321 321 322 322 322 321 321 322 322 323 323 323 323 323 324 324 323 323 323 324 325 326 326 326 326 326 326 325 325 326 326 327 327 328 327 324 323 324 326 326 326 326 326 326 326 324 323 323 322 321 321 320 319 319 318 318 317 317 317 317 317 316 316 316 316 316 316 316 315
320 320 319 319 319 320 320 320 320 320 320 320 320 320 320 320 320 320 321 321 321 321 322 322 321 322 322 323 322 322 322 323 323 324 323 323 322 323 324 325 325 324 324 325 325 324 324 325 325 324 325 325 323 321 321 324 326 325 325 325 324 324 324 322 321 321 321 320 319 319 318 318 318 318 317 317 317 317 316 316 316 315 315 315 315 315 314
319 319 319 319 319 319 319 318 318 318 319 319 319 319 319 319 319 319 319 319 319 319 320 320 320 320 320 321 321 322 323 322 322 323 323 323 322 322 323 324 324 324 323 324 325 324 324 324 323 321 320 320 319 319 322 325 325 324 324 324 323 323 322 321 321 320 320 319 319 319 318 318 318 318 317 317 316 316 315 315 314 314 314 313 313 313 313
318 317 317 318 318 318 318 317 316 317 317 317 317 317 317 318 317 317 317 317 317 317 317 318 318 318 318 318 319 321 321 322 322 321 321 322 322 321 321 321 322 323 322 323 324 324 324 323 321 320 319 318 317 319 321 323 323 323 323 323 322 322 321 321 320 320 319 319 319 319 318 318 317 316 316 315 314 314 314 313 313 313 313 312 312 312 311
318 317 317 317 318 318 317 317 317 317 316 315 315 315 316 316 316 315 316 316 316 316 316 316 316 316 316 316 316 317 318 320 321 321 320 321 322 321 320 320 321 321 321 322 324 325 323 321 319 319 319 318 317 318 320 320 320 320 320 320 320 320 320 320 320 319 319 319 318 318 317 316 315 314 314 314 313 313 313 312 312 312 312 312 311 311 310
319 318 317 317 318 318 318 318 318 317 315 315 315 315 315 315 315 315 315 315 315 316 316 315 315 315 315 315 315 315 316 317 318 319 319 320 320 320 320 320 320 320 320 322 323 324 323 321 320 319 319 318 318 319 319 318 318 318 318 317 317 318 318 318 318 318 317 317 317 316 315 314 314 313 314 313 312 312 312 312 312 312 312 311 311 310 309
318 318 317 317 317 318 317 317 316 316 315 315 315 314 314 315 315 314 315 314 314 314 314 314 314 315 315 314 315 315 315 315 315 315 316 316 318 319 319 318 317 317 319 322 323 322 321 320 320 320 319 319 319 320 320 319 318 317 317 316 316 316 316 316 316 316 316 315 315 315 314 313 313 313 313 313 312 313 313 312 312 312 311 311 310 310 309
317 317 316 316 316 316 315 315 315 315 315 315 314 314 315 315 315 314 314 314 314 314 313 313 313 314 314 314 315 315 314 313 314 315 315 315 316 316 317 317 315 313 315 320 322 322 321 320 319 319 319 319 319 320 321 320 319 318 318 317 316 316 316 315 315 314 314 314 314 313 313 313 313 313 313 313 313 312 312 312 312 311 311 310 309 308 308
318 317 316 315 315 315 314 314 314 314 314 314 314 315 315 315 314 314 315 314 314 314 313 313 313 313 313 313 314 315 313 313 313 314 314 315 316 316 316 317 315 312 311 314 318 320 320 320 320 319 319 319 320 320 320 320 319 319 318 318 317 317 316 316 315 314 314 313 313 313 313 313 313 313 313 313 313 312 312 312 312 311 310 309 308 308 307
318 317 316 315 315 315 315 315 314 314 314 314 314 314 314 314 314 314 314 314 314 314 313 313 313 314 314 313 314 314 314 314 314 313 314 315 316 316 316 316 316 314 312 313 315 317 318 318 318 317 316 318 319 320 320 320 319 319 318 318 318 318 317 317 316 316 315 314 313 313 313 313 313 313 313 313 313 312 312 312 311 310 309 309 308 308 308
318 317 316 316 316 315 315 315 315 315 315 315 314 314 315 314 314 314 314 314 314 314 314 314 314 314 315 314 314 314 314 314 315 315 315 315 315 314 315 315 316 315 315 315 316 316 316 316 315 313 312 314 317 318 319 318 318 318 318 317 317 317 317 317 317 317 316 315 314 314 313 313 313 313 313 313 312 312 311 311 311 310 309 309 309 308 308
Wind_Speed
22 22 20 18 16 15 17 19 20 22 22 22 21 21 22 20 14 13 14 16 19 19 19 20 17 14 13 14 17 22 24 21 12 10 13 14 14 16 18 20 23 26 31 35 37 37 37 36 36 36 36 36 36 36 36 35 32 28 27 31 35 37 39 37 30 29 37 40 39 39 39 39 38 38 38 39 39 40 41 39 34 32 30 27 26 26 26
21 24 24 23 21 19 19 20 21 22 24 25 23 22 24 24 21 19 18 19 19 18 18 21 21 21 21 21 22 23 25 24 16 11 13 14 15 18 21 23 25 27 31 35 37 37 37 36 36 36 36 35 35 35 34 35 34 30 29 33 35 35 37 37 34 33 36 38 37 38 40 41 41 41 41 41 40 41 42 41 38 34 30 28 28 28 26
17 22 22 23 23 22 21 21 22 23 23 24 25 23 22 22 22 23 24 22 18 15 15 18 22 25 25 22 22 23 26 27 21 14 14 16 17 19 21 24 25 27 30 34 36 37 37 35 34 34 34 32 32 33 32 33 34 31 33 35 32 32 35 36 35 34 35 35 35 35 38 41 43 43 42 43 43 43 42 42 39 35 32 30 29 28 27
12 17 20 22 22 21 21 21 21 23 22 20 20 20 21 21 20 22 23 19 15 14 15 17 19 22 21 19 21 23 25 26 23 17 16 18 20 21 23 24 26 28 33 36 38 38 35 33 34 33 31 30 29 29 30 31 30 30 32 33 32 31 31 30 30 32 33 33 33 33 35 38 42 45 45 45 46 45 43 43 41 37 35 33 30 29 29
10 14 18 19 19 17 16 17 19 21 21 21 20 20 21 23 21 18 17 15 13 14 15 17 18 21 21 19 21 24 23 23 23 19 18 20 20 21 24 26 28 31 33 35 36 36 32 31 31 29 27 26 25 26 28 28 27 28 28 30 31 28 24 24 28 30 30 30 31 30 31 34 38 44 47 47 48 47 45 44 43 40 38 35 30 29 30
8 10 9 10 14 14 11 11 16 21 22 22 22 20 21 22 19 16 15 14 14 14 16 18 18 19 20 21 23 26 23 19 19 18 18 17 16 17 19 23 27 28 29 29 31 31 29 28 27 25 24 24 23 24 26 26 26 27 27 27 27 23 21 23 26 27 27 29 28 27 28 30 35 41 46 49 49 48 46 46 45 42 39 36 31 29 29
7 8 6 8 12 11 6 4 8 13 16 20 22 21 21 21 19 19 19 18 17 15 16 18 18 18 20 20 20 22 19 16 15 16 16 15 15 15 17 20 23 27 29 29 29 28 27 26 26 25 25 24 23 23 24 25 25 25 25 25 24 21 21 23 25 25 26 27 27 26 26 28 33 38 44 49 51 49 47 47 46 42 39 36 34 32 29
5 6 9 10 9 6 6 3 3 4 8 14 17 19 22 22 21 21 20 20 20 17 16 20 21 17 14 12 14 19 20 20 19 17 16 16 16 17 19 22 25 28 30 29 27 27 27 27 26 25 24 24 23 23 22 22 21 21 22 23 23 21 21 23 24 25 25 24 25 24 22 24 31 36 40 47 51 50 49 48 45 41 38 36 36 36 33
3 6 8 8 6 7 7 2 5 5 4 6 8 10 14 18 20 20 18 20 21 19 20 23 19 11 8 8 13 20 22 24 25 21 16 16 16 17 19 21 24 27 27 27 26 27 28 27 25 24 24 23 22 21 20 18 17 18 19 20 21 21 20 21 22 22 22 22 22 20 19 21 26 30 33 38 45 50 50 46 43 42 39 35 37 40 37
3 4 5 7 8 7 3 3 5 6 7 7 6 6 8 12 17 20 19 18 19 20 21 20 12 7 7 9 12 18 21 22 24 21 16 15 16 17 17 19 23 26 27 28 28 28 28 26 25 24 23 22 20 18 16 15 14 15 16 17 18 17 17 19 20 18 18 19 18 17 18 18 20 22 23 25 35 46 49 43 39 40 39 37 39 43 38
6 5 5 7 9 4 3 5 6 7 6 4 4 6 9 9 11 17 21 21 20 20 19 15 11 8 9 9 11 15 17 17 17 16 14 14 15 18 20 21 24 26 28 29 28 27 27 26 26 25 23 21 18 17 15 14 13 13 13 13 13 12 13 17 17 14 14 15 15 15 15 16 18 20 21 24 31 40 46 44 39 36 35 36 41 42 35
8 7 7 7 5 1 6 8 9 8 4 1 4 9 6 4 12 14 14 15 18 20 19 15 11 10 11 8 6 11 14 13 13 14 15 15 16 18 18 18 20 23 26 28 28 28 29 29 28 26 24 22 19 17 15 13 11 10 9 10 10 10 12 14 14 13 13 13 13 13 13 15 17 18 22 29 33 37 43 44 40 34 30 32 37 37 31
9 8 8 7 4 2 6 9 9 7 4 6 7 6 4 9 15 16 14 14 15 15 16 15 11 12 9 3 5 12 14 13 13 14 15 15 15 16 17 19 23 26 29 31 32 32 32 31 29 27 25 23 20 18 16 14 12 11 10 10 10 10 11 13 13 12 12 12 12 12 12 13 16 18 23 29 30 30 33 35 36 34 31 30 33 34 30
10 9 8 8 6 2 6 7 6 5 3 5 3 7 12 14 14 13 11 12 13 12 14 16 13 11 10 9 10 13 13 15 16 16 17 18 19 20 23 25 28 32 34 35 35 34 32 30 28 26 24 22 20 18 16 15 13 12 12 11 10 10 11 12 12 12 12 11 11 11 12 14 17 21 26 28 26 24 25 27 30 32 31 32 32 29 25
9 9 9 8 6 3 5 5 3 4 4 6 8 13 14 12 12 11 9 7 7 9 11 13 11 13 14 13 14 15 15 17 18 19 22 25 26 29 31 31 33 37 39 38 35 32 30 27 26 24 22 21 19 17 16 14 12 11 10 10 10 10 11 11 11 11 12 12 11 11 13 16 17 21 25 26 24 23 23 24 25 27 30 31 29 23 19
9 11 9 5 3 6 7 5 4 3 5 10 12 12 10 9 10 9 6 4 2 4 5 8 11 15 17 17 17 18 18 19 21 23 26 29 31 32 32 33 35 36 37 35 32 30 28 25 23 20 18 17 17 15 13 11 10 9 8 8 9 10 10 10 10 11 12 12 11 12 14 16 19 22 24 22 20 19 21 21 22 25 27 27 23 18 16
5 4 2 3 5 8 11 11 8 6 6 9 10 8 7 8 8 7 7 7 6 4 6 9 13 17 21 22 21 22 23 24 24 25 26 28 30 32 33 34 34 33 33 32 30 28 25 22 20 17 15 14 13 12 11 10 10 10 9 9 10 9 9 9 10 11 12 12 11 12 13 16 21 24 23 19 17 19 21 21 23 25 25 23 19 15 12
2 2 5 7 6 7 12 15 13 10 9 10 10 9 8 7 6 9 12 13 12 10 10 13 17 21 25 26 25 24 26 27 26 27 27 27 29 32 33 33 32 31 30 29 28 27 25 21 18 16 13 11 9 9 11 11 11 10 10 9 8 7 7 7 8 10 10 11 11 11 11 13 18 22 22 19 19 20 22 24 25 24 22 19 15 10 8
3 3 4 5 5 7 11 14 15 13 10 11 11 11 11 11 9 12 18 20 18 14 11 12 17 23 25 26 25 25 27 29 29 29 29 29 30 31 31 30 29 28 27 26 24 23 22 19 17 14 12 10 10 11 12 11 11 10 8 7 7 6 6 6 7 8 9 10 10 10 10 12 15 18 20 20 21 21 22 25 26 23 19 16 12 10 11
1 3 5 6 8 12 14 14 14 11 9 11 13 13 13 14 14 16 23 26 22 18 14 13 17 22 24 24 24 25 27 30 31 31 31 30 29 28 26 25 23 21 21 20 18 16 16 15 14 12 12 11 11 11 10 8 7 6 6 6 6 6 6 6 7 8 10 11 10 9 10 13 15 17 18 19 20 20 22 26 27 22 17 14 12 13 14
2 4 5 5 7 11 14 14 14 11 9 10 13 15 16 17 17 18 24 27 23 19 17 15 17 20 21 22 24 25 26 28 30 30 28 27 25 24 22 20 18 18 17 16 15 14 13 13 11 11 10 9 8 7 6 5 4 5 5 5 5 5 5 6 7 9 11 11 10 9 11 13 14 16 18 18 17 18 22 27 27 22 18 16 15 14 14
1 2 3 4 4 6 8 11 13 13 10 10 14 18 20 20 19 18 21 24 24 21 19 18 18 18 19 19 22 24 26 27 28 27 26 24 22 20 18 16 16 15 14 13 13 12 11 10 9 8 8 7 6 4 4 4 4 5 6 5 6 6 6 6 8 9 10 10 10 11 12 14 14 16 18 19 18 20 23 25 24 21 19 18 16 15 14
3 3 2 4 5 5 6 10 15 15 13 15 19 20 19 19 19 19 20 23 24 24 23 21 20 19 18 19 22 24 24 24 24 24 23 22 20 18 16 14 13 12 12 10 9 9 8 7 6 6 6 6 5 5 4 4 4 5 6 6 7 8 8 9 11 10 9 10 11 11 10 12 12 13 13 13 14 16 18 17 17 17 16 15 15 15 14
4 4 4 6 8 9 8 11 17 18 17 19 23 23 20 19 18 18 20 23 23 23 23 22 21 20 18 19 22 23 22 21 21 21 19 19 18 16 14 13 12 11 10 9 8 7 7 6 6 6 6 6 6 6 5 4 4 4 5 7 11 11 11 14 16 15 12 11 10 9 9 10 10 9 9 9 11 13 13 13 13 14 14 14 15 15 14
6 7 9 13 15 14 12 13 16 16 15 18 20 20 18 18 18 17 19 22 23 22 21 21 19 18 18 18 19 19 19 19 18 18 16 15 15 14 13 12 11 10 10 9 8 8 7 6 6 6 6 6 6 5 5 4 4 5 6 10 13 12 11 13 16 16 12 10 10 10 10 10 9 8 8 9 10 12 13 13 14 14 14 14 14 14 13
9 10 14 18 19 16 13 14 14 14 16 19 20 16 14 15 16 16 16 17 19 20 20 17 15 14 15 16 17 17 17 16 15 15 15 13 12 12 11 10 9 9 8 8 7 6 5 5 5 5 6 6 5 5 5 5 5 6 7 8 9 7 5 8 11 10 9 10 11 10 9 9 9 9 10 10 10 11 12 13 14 14 14 14 13 12 12
14 12 14 17 17 15 14 13 13 13 15 19 19 17 15 14 13 12 13 14 15 15 15 15 12 10 8 9 11 12 12 12 11 12 13 12 11 10 9 8 8 7 7 6 6 5 5 5 5 6 6 6 6 5 5 6 7 8 8 8 8 7 5 5 8 10 10 11 10 8 8 9 9 10 10 10 10 10 11 11 12 13 13 13 13 12 12
22 21 20 17 14 13 12 12 13 14 15 16 16 14 12 12 11 11 13 13 12 10 9 9 9 9 8 8 9 9 7 7 9 10 11 11 11 9 9 8 7 6 5 5 5 5 4 5 6 7 7 8 7 7 7 9 11 12 12 11 10 8 6 6 10 11 11 9 8 8 9 10 10 10 10 9 8 10 10 10 10 12 13 13 13 12 12
21 21 21 18 14 13 13 13 14 14 14 13 13 11 10 10 12 13 13 11 9 6 4 3 5 7 8 8 9 8 7 7 8 9 9 9 9 8 8 7 6 5 4 3 3 3 4 4 5 6 7 8 8 9 10 12 14 13 13 11 8 6 6 8 10 9 8 8 7 8 9 9 9 10 9 9 10 12 12 11 11 10 10 12 13 12 12
18 17 17 15 12 13 15 16 16 14 12 11 11 11 10 10 12 13 12 10 9 8 6 5 5 6 7 6 6 6 5 6 7 8 7 6 6 6 6 6 6 5 3 2 3 4 4 4 6 7 7 8 9 10 12 13 14 13 11 10 8 6 7 8 9 8 9 9 8 7 6 7 8 9 9 10 13 13 11 11 11 9 8 10 11 10 11
17 17 16 15 13 12 13 13 13 12 11 11 11 11 11 11 11 11 9 8 8 7 6 6 5 5 5 6 6 6 6 6 6 7 6 4 3 3 3 4 5 4 2 2 4 5 5 5 6 8 9 11 12 12 13 13 13 11 8 7 6 6 7 9 10 10 9 9 8 7 7 8 9 10 10 10 11 11 9 9 9 9 8 8 8 7 9
14 13 12 12 12 11 10 10 10 9 9 10 10 11 11 10 9 9 8 7 6 6 5 5 6 6 6 6 7 7 7 7 7 8 7 4 2 1 0 1 2 2 2 3 3 4 4 5 6 8 11 12 13 14 15 14 13 10 9 8 7 5 6 9 12 11 10 9 8 8 9 9 9 9 9 8 9 9 8 7 8 9 9 7 6 7 9
9 7 6 6 7 8 7 6 6 6 6 8 9 9 9 9 8 7 6 5 4 5 6 7 8 8 7 7 7 7 7 7 7 8 7 4 2 1 1 1 2 2 3 3 3 3 3 4 6 8 11 13 14 15 15 15 14 13 10 7 4 3 3 6 10 10 9 8 8 9 9 9 8 7 8 7 6 6 6 7 7 8 8 7 7 9 11
2 1 2 3 4 5 5 3 1 2 4 5 6 6 7 6 5 4 3 3 3 5 6 7 7 7 7 7 8 8 8 8 8 8 7 5 3 2 1 1 2 3 4 5 5 4 4 5 7 8 10 14 15 15 15 15 14 13 10 7 5 7 6 6 8 9 9 9 10 9 9 8 7 7 6 5 5 5 6 7 7 7 6 7 8 10 11
2 3 5 6 5 5 6 5 3 2 2 3 4 5 6 5 4 3 3 3 4 5 6 6 7 7 8 9 10 10 10 10 9 8 7 6 5 4 2 2 1 1 0 3 6 6 5 6 6 6 9 12 14 13 13 14 13 13 12 9 7 6 7 8 10 11 10 9 8 7 7 7 7 6 5 5 5 5 6 6 6 6 7 7 7 8 8
5 6 8 8 7 6 6 5 4 3 4 4 4 4 5 5 4 4 4 4 5 6 6 7 8 9 10 11 11 11 11 10 9 8 7 6 6 5 5 5 5 5 4 2 2 3 3 4 7 8 8 10 11 11 12 12 11 11 11 9 7 9 11 12 12 11 9 8 8 8 8 8 6 5 4 5 5 5 5 6 6 6 6 6 6 6 6
6 6 7 7 6 5 5 5 5 5 4 4 4 4 5 4 4 4 5 5 6 7 8 9 10 10 11 11 11 11 10 10 9 8 7 6 6 5 5 5 6 5 4 3 2 1 1 4 7 8 7 6 8 9 11 11 10 9 9 8 10 12 13 11 9 8 8 7 8 8 8 7 5 3 3 5 5 5 5 6 6 6 6 6 6 5 5
6 5 5 4 4 5 5 5 5 5 5 5 5 5 5 5 5 5 5 6 7 8 9 10 10 11 11 11 10 10 10 10 9 8 7 6 6 6 5 5 5 4 2 2 3 2 1 4 7 7 5 5 6 7 8 9 9 8 8 9 11 13 12 9 7 7 8 8 8 7 6 5 5 5 4 5 5 5 6 7 6 6 6 6 5 5 5
7 6 5 4 4 5 5 6 6 6 6 6 6 6 6 6 6 6 6 6 7 8 9 9 10 10 11 11 11 11 11 10 9 9 9 8 7 7 6 6 5 3 4 5 4 1 2 5 6 4 4 5 5 5 7 9 9 9 9 8 9 10 10 9 9 9 9 8 7 7 6 6 7 6 6 6 6 6 6 7 6 6 6 6 5 5 5
8 7 7 6 6 6 7 8 8 8 7 7 7 7 7 7 7 8 8 8 8 8 9 9 10 10 11 11 11 10 11 10 9 9 9 9 9 8 8 8 7 5 6 6 4 2 4 7 6 4 4 5 4 4 7 8 8 7 7 7 7 8 9 9 9 9 8 7 7 8 7 7 7 7 7 7 7 6 6 7 6 5 5 5 5 5 6
9 8 8 8 8 8 8 8 8 8 8 8 8 8 8 8 8 8 9 8 8 8 9 10 10 10 10 10 9 8 9 9 8 8 8 9 9 9 8 8 7 6 5 5 4 4 5 6 4 4 5 5 4 5 7 7 5 4 5 6 7 8 9 9 8 8 7 7 7 8 7 7 8 8 8 7 7 7 6 6 5 5 5 5 5 6 6
9 9 9 9 9 9 9 9 9 9 9 9 9 9 9 9 9 9 9 8 8 8 9 10 10 9 9 8 8 8 8 8 8 8 9 9 10 10 9 7 7 5 4 5 6 6 6 5 5 5 6 5 5 7 8 8 6 6 6 7 8 8 8 9 8 7 8 8 8 8 9 8 8 8 8 8 7 7 6 5 5 5 5 5 6 7 8
9 9 9 9 10 9 9 9 9 9 9 9 9 10 10 10 10 10 10 10 10 10 10 10 11 10 10 9 9 9 9 9 9 8 8 9 9 9 8 7 6 5 5 5 5 5 5 5 4 4 6 5 6 6 7 6 6 6 7 7 8 9 9 9 9 9 10 10 9 10 10 9 9 8 8 8 7 6 6 5 5 5 6 6 7 8 9
9 9 8 8 8 9 9 9 9 9 9 9 9 10 9 10 10 10 10 10 11 12 12 12 12 12 11 11 11 10 9 9 9 9 8 8 8 9 8 6 5 3 2 2 3 2 3 3 2 3 5 5 6 6 6 5 5 6 7 8 9 9 9 10 10 10 11 10 10 10 10 9 9 9 8 8 7 7 6 6 5 5 6 6 7 7 8
8 8 7 7 7 7 8 8 8 8 8 8 8 9 10 10 10 10 10 10 11 11 12 12 13 13 12 12 12 11 10 9 9 10 9 8 8 8 8 6 5 3 1 1 1 1 1 2 3 3 3 4 5 6 5 4 5 6 7 7 8 9 9 10 10 10 9 9 9 9 9 9 9 9 8 8 7 6 6 6 5 5 5 5 6 6 7
6 6 6 6 6 6 7 7 7 7 6 6 7 8 9 9 9 9 9 9 10 10 10 11 11 12 12 12 12 12 10 9 9 10 10 8 7 7 7 6 5 4 3 2 2 1 2 3 3 3 3 4 4 5 3 3 5 5 5 6 7 7 8 9 9 8 9 9 9 9 10 9 9 9 9 8 7 7 6 6 6 5 6 6 6 7 7
5 5 6 6 6 6 6 6 6 6 6 6 6 7 8 8 9 9 9 9 9 9 9 9 10 10 11 11 11 11 10 9 9 9 10 9 8 8 7 6 6 5 4 3 2 3 4 4 3 4 5 5 5 5 4 4 5 5 5 6 6 7 8 9 9 9 10 10 10 10 10 10 10 10 9 9 8 8 7 7 6 6 7 7 7 8 8
5 5 5 6 6 6 6 6 6 6 6 5 5 6 6 7 8 8 9 9 9 8 7 8 8 8 8 8 8 8 8 8 7 7 8 8 8 7 7 7 7 6 5 4 4 4 5 5 5 5 5 5 5 5 6 6 6 6 5 5 5 6 7 8 9 10 10 11 11 11 11 11 10 10 10 9 9 9 8 8 8 7 7 7 7 8 8
4 5 5 6 7 7 7 7 7 6 5 5 5 5 5 6 6 7 8 8 9 8 8 7 8 7 7 7 6 6 6 6 6 6 6 7 7 7 6 7 8 8 7 5 5 5 6 7 7 8 7 7 6 7 8 8 8 8 8 8 7 7 7 8 8 9 9 10 10 11 11 11 11 11 11 11 11 10 10 9 9 9 9 9 9 9 10
4 4 4 4 5 6 6 7 6 5 5 4 4 5 5 6 6 7 7 7 7 7 8 8 7 7 7 7 6 7 7 8 8 8 8 8 7 7 7 7 7 7 8 6 5 6 7 7 8 9 9 9 8 9 9 10 10 11 11 11 11 11 10 10 10 11 10 10 10 11 11 11 12 12 13 13 13 13 12 11 10 11 12 13 12 11 10
4 3 2 2 3 4 5 5 5 4 4 5 5 5 6 6 6 6 6 6 7 7 8 8 9 9 8 8 8 8 8 8 9 9 9 9 9 9 10 10 10 10 10 8 6 6 6 7 7 8 8 9 9 10 11 11 11 13 14 15 14 13 13 13 13 13 13 13 13 13 13 12 13 14 15 15 15 14 13 12 11 11 12 12 11 10 10
3 2 1 2 3 3 4 4 5 5 5 5 5 6 6 6 7 7 6 6 7 7 8 9 10 10 8 8 9 9 8 9 9 10 10 11 12 12 12 12 12 12 12 10 9 8 7 7 7 8 8 8 8 10 11 12 12 14 15 16 17 17 17 16 15 15 15 15 15 15 15 15 15 16 16 16 15 15 14 13 13 13 13 12 11 12 12
Wind_Direction
232 237 239 234 226 223 226 223 220 220 221 222 226 231 235 235 236 240 234 227 231 232 232 233 230 227 231 237 242 248 256 261 251 230 234 228 213 211 214 219 218 214 214 215 216 216 216 217 218 219 220 220 221 222 222 220 213 204 202 210 218 224 228 230 230 234 239 238 232 229 229 230 231 232 233 232 231 230 229 229 229 227 223 223 226 231 235
229 231 233 236 233 227 228 230 228 227 224 222 224 230 233 234 238 244 241 235 232 228 229 237 241 242 245 248 246 245 252 261 258 229 224 227 218 214 221 229 227 221 219 218 216 215 214 215 216 217 218 220 221 222 223 223 219 209 208 217 223 224 228 233 235 239 244 244 238 231 229 230 230 231 232 233 231 229 228 227 227 227 223 221 226 230 232
231 229 230 232 233 233 231 231 232 233 231 228 226 226 228 232 236 238 239 240 237 228 228 237 240 243 247 248 244 242 246 255 258 242 231 233 225 218 224 231 229 223 219 218 217 215 214 213 212 213 215 217 219 221 222 224 223 216 216 223 224 224 231 234 236 241 247 249 247 240 233 230 230 230 231 232 231 229 228 226 226 226 222 220 226 231 230
229 225 227 228 230 234 235 233 233 233 234 234 232 228 226 228 232 234 235 237 238 233 233 234 235 239 242 240 237 236 239 246 250 243 236 235 228 223 226 230 228 223 218 216 216 214 211 208 208 209 211 212 215 217 219 222 222 217 219 226 228 231 233 231 235 245 251 252 252 248 239 233 231 230 230 232 231 230 229 228 225 224 220 217 224 231 231
231 223 224 225 226 229 231 229 229 232 234 235 237 236 230 227 229 233 233 235 238 235 230 230 230 233 234 230 228 229 231 236 239 238 238 238 234 230 230 230 229 223 217 213 213 211 207 205 205 205 205 207 209 212 216 218 218 216 220 227 232 232 225 223 237 249 251 250 252 250 244 238 233 231 230 232 232 231 230 228 226 224 219 214 220 229 231
236 221 215 225 228 226 229 228 226 229 232 233 236 239 237 232 231 235 241 242 238 229 225 229 229 228 228 227 226 226 227 230 232 234 239 242 236 229 227 227 225 218 208 205 208 209 205 202 203 201 201 205 205 207 213 215 216 218 222 227 230 225 216 225 241 249 247 246 249 251 246 239 234 233 232 233 233 232 229 227 225 223 217 213 219 229 231
235 211 200 225 227 224 238 251 239 239 238 238 239 241 242 240 237 238 243 244 241 233 226 230 232 231 232 232 231 230 230 231 233 235 238 237 230 221 216 217 217 212 206 205 205 203 200 198 199 198 197 199 201 204 208 211 215 218 223 228 227 220 222 235 242 243 243 244 246 249 246 238 234 233 232 233 233 231 227 225 225 223 218 216 224 231 233
236 215 216 229 236 249 259 272 353 308 260 246 244 241 238 237 236 237 236 238 240 236 229 234 238 236 233 236 240 241 240 240 241 239 238 235 224 214 213 217 218 215 210 206 200 194 192 192 191 191 191 192 196 199 201 206 211 215 221 227 227 225 232 238 238 239 241 242 243 243 238 233 234 233 232 234 236 232 226 225 225 224 221 222 228 232 235
239 230 227 230 247 260 254 263 37 15 325 288 274 258 242 237 237 237 236 236 235 232 234 239 235 222 222 242 249 245 242 245 245 240 236 233 220 214 222 227 225 217 207 201 195 186 183 183 183 183 186 188 190 192 195 199 205 211 219 224 227 230 234 234 235 239 241 240 239 235 227 226 231 231 230 235 237 233 228 225 225 224 224 225 228 231 235
226 247 245 236 237 233 200 79 45 14 348 332 321 294 256 242 238 234 231 232 230 231 238 234 210 187 218 242 250 243 233 235 240 237 229 225 214 208 212 213 211 208 198 191 189 183 177 177 178 177 177 178 178 179 184 190 197 206 214 220 224 228 229 231 234 236 237 238 235 229 224 222 226 226 224 230 235 233 228 224 223 226 226 225 228 231 235
222 235 239 238 239 222 88 49 12 353 339 336 319 271 246 247 257 247 236 227 223 229 232 215 182 187 225 237 241 230 213 209 217 214 205 200 193 191 195 197 200 200 190 182 181 178 172 171 170 167 163 162 163 165 169 177 187 196 206 213 218 220 222 226 226 223 226 229 226 223 222 221 226 226 223 230 236 234 230 225 223 226 226 224 227 232 236
219 227 236 248 248 118 52 11 352 341 322 229 230 238 236 328 333 312 280 248 232 228 221 201 185 203 225 240 218 186 177 180 186 186 183 182 179 180 186 190 192 189 180 172 170 167 164 160 156 153 151 152 154 156 159 165 172 180 188 196 202 208 213 215 212 210 217 220 218 221 223 224 227 225 226 235 238 236 234 229 225 225 224 222 226 230 232
216 222 234 251 248 85 27 352 348 340 284 215 212 237 304 333 324 324 318 290 266 242 213 198 201 210 210 193 140 150 156 160 161 166 172 170 163 160 163 169 171 167 162 159 157 154 152 149 146 147 148 149 150 150 151 153 157 162 170 179 189 198 203 203 203 208 214 217 217 220 220 221 224 226 231 237 236 233 232 230 226 226 222 221 228 230 232
223 224 229 241 230 121 19 354 15 18 285 230 250 320 322 316 312 318 315 291 280 263 226 212 209 195 172 147 139 144 147 145 143 147 149 145 143 148 154 157 156 151 149 149 147 145 144 143 144 146 146 146 146 146 146 149 155 162 167 173 182 189 192 197 202 207 214 218 220 220 217 216 224 233 237 238 236 234 234 232 231 229 224 224 230 232 234
221 219 221 233 219 133 33 354 35 45 318 302 326 322 314 321 328 325 318 297 281 267 238 214 188 159 146 139 135 133 131 131 132 132 133 134 138 143 144 145 146 147 147 145 142 140 140 140 141 143 145 146 146 147 148 151 157 163 166 171 182 191 194 198 202 206 213 219 222 224 222 219 227 237 238 237 239 237 233 230 227 225 223 225 228 230 234
215 223 220 220 161 105 73 43 61 54 332 319 319 314 317 340 343 335 346 9 322 254 218 182 157 141 131 124 122 120 118 116 115 119 125 130 133 135 137 141 145 144 141 137 133 131 131 132 134 137 143 147 146 146 150 157 166 174 183 194 202 204 204 203 203 205 211 216 219 223 225 228 234 234 229 231 236 226 216 214 214 213 216 221 225 227 232
214 249 221 111 90 93 93 87 81 60 5 338 329 328 338 349 357 15 41 62 81 113 143 144 136 126 119 115 113 110 107 103 102 104 108 114 122 129 135 138 138 136 133 131 130 128 129 132 135 138 142 145 144 147 156 169 181 189 198 209 210 206 206 209 207 205 209 214 215 219 227 234 235 229 223 226 228 214 205 206 208 210 213 215 217 220 228
142 62 74 90 84 82 90 90 81 63 30 5 360 8 11 7 27 58 66 69 77 93 117 125 120 112 107 104 102 99 98 96 96 97 99 104 113 121 125 127 129 131 130 130 131 131 132 133 136 140 144 146 151 164 173 181 187 189 193 200 200 193 195 204 206 203 207 213 213 217 225 229 229 227 225 220 214 206 203 205 206 207 210 210 210 222 246
174 156 103 99 94 77 76 79 77 67 42 18 12 18 24 25 36 63 72 71 69 73 85 97 102 102 99 97 97 95 95 98 99 101 104 108 111 114 116 119 123 126 127 126 127 129 130 133 138 146 154 162 172 181 185 187 189 189 190 193 192 188 188 199 205 202 205 209 208 210 217 217 218 222 220 212 206 203 202 202 201 201 203 202 210 243 258
145 128 99 97 93 75 63 65 71 64 42 29 23 22 30 36 36 55 74 76 66 55 52 62 80 89 92 94 96 95 97 102 105 107 109 110 112 112 114 116 118 119 122 125 126 130 133 138 145 155 162 168 174 178 182 186 189 196 202 202 207 207 197 198 202 201 206 209 199 195 210 215 215 216 214 211 210 207 201 197 197 202 206 209 228 252 247
129 111 115 124 107 80 64 62 65 58 41 39 40 35 37 39 35 48 72 80 72 55 43 43 58 72 81 89 94 96 97 102 106 109 110 111 111 112 114 116 117 118 121 125 129 133 136 138 144 152 155 159 163 167 177 187 197 220 229 219 211 200 185 190 196 194 201 205 194 189 206 215 215 212 207 204 206 206 202 200 202 211 226 236 243 243 228
177 104 142 145 116 87 72 66 66 59 45 50 57 49 42 40 37 40 58 75 81 74 56 45 49 59 67 78 88 92 95 100 105 108 109 110 110 110 111 114 115 117 120 125 130 132 133 136 142 146 147 149 152 159 184 201 213 233 234 212 184 168 170 192 201 195 194 195 187 189 204 213 215 213 207 202 202 203 203 205 211 223 236 239 233 222 216
40 32 117 110 73 78 95 95 91 84 72 68 67 55 43 43 50 54 57 65 74 75 65 52 48 51 58 72 82 85 89 96 103 107 108 109 108 107 109 111 112 114 117 122 129 133 136 140 147 150 151 154 158 170 192 207 216 226 225 196 165 160 178 197 197 190 189 192 188 187 197 206 213 216 210 202 197 199 203 210 217 222 224 221 218 219 225
40 39 102 111 100 100 100 97 99 99 93 86 79 68 54 47 51 64 71 65 63 70 73 66 54 48 54 71 82 84 86 90 96 101 104 107 108 108 109 111 112 115 120 125 133 141 146 150 154 155 156 161 166 175 186 199 206 209 196 170 160 167 190 200 192 182 182 190 192 188 182 184 191 197 194 184 177 182 196 208 210 209 211 212 214 220 227
84 82 97 105 105 105 96 85 86 94 101 97 88 79 70 57 47 58 74 73 65 63 70 75 70 59 56 63 72 80 85 89 92 93 94 98 104 107 112 117 119 120 122 125 128 134 140 145 150 156 160 163 166 170 172 177 178 173 171 174 176 183 198 199 188 183 184 184 178 169 160 160 165 165 165 172 176 177 185 196 202 206 212 213 211 214 221
88 97 107 106 101 99 99 91 83 83 92 94 89 86 86 74 54 46 59 73 71 60 55 63 71 68 64 65 65 71 81 88 93 93 90 87 92 98 105 114 119 120 122 124 126 131 139 147 156 162 160 152 147 147 150 155 158 161 173 186 185 180 187 190 182 178 176 169 162 156 151 156 167 166 166 176 186 186 189 198 203 206 212 216 217 219 224
79 86 100 101 92 83 84 87 85 81 82 86 88 91 94 89 74 53 47 58 69 64 54 49 46 47 64 76 68 63 73 85 94 101 99 92 89 93 100 106 114 121 129 135 137 139 140 145 148 146 142 136 135 139 141 140 142 146 154 158 151 141 153 180 173 164 161 160 159 160 166 175 182 182 184 194 199 196 199 206 208 210 216 221 223 225 228
78 78 80 79 68 58 58 66 74 75 73 76 83 87 89 88 81 67 54 51 56 66 66 53 36 30 43 71 74 63 62 75 83 92 97 93 89 92 99 104 108 118 129 134 135 134 134 138 141 143 144 144 143 145 143 138 135 134 133 135 139 140 147 158 158 158 162 167 172 182 190 194 198 199 203 210 205 193 191 197 203 210 219 222 222 224 229
75 80 84 81 67 55 54 55 58 59 59 64 71 73 74 76 70 61 52 40 31 38 49 49 42 33 30 49 71 67 58 65 70 69 77 85 88 91 98 101 101 108 122 134 143 151 153 155 161 163 160 155 153 154 151 144 139 134 130 132 140 148 158 165 165 168 176 183 194 204 203 203 208 209 204 199 194 191 191 190 189 197 214 226 228 230 233
76 79 87 90 76 59 54 51 51 52 51 53 59 61 64 69 68 63 53 33 16 12 2 355 20 34 25 32 55 56 48 60 65 59 61 74 81 85 91 94 88 82 81 118 177 195 186 173 176 175 167 163 164 162 156 149 144 139 136 138 146 157 173 183 184 184 190 201 214 220 205 190 194 197 192 193 199 199 196 190 187 190 208 222 223 227 237
84 79 83 86 74 57 44 38 41 51 57 59 62 61 59 58 60 63 58 35 13 8 1 0 17 30 26 31 40 41 44 55 60 56 52 51 63 79 85 89 92 89 95 142 185 201 192 183 189 188 178 173 173 171 166 158 152 148 148 156 165 171 184 193 191 188 200 220 229 216 188 176 178 179 178 188 198 196 188 189 194 201 213 217 211 216 238
85 79 78 77 69 58 41 23 23 39 53 55 55 54 52 49 47 51 54 40 10 353 353 14 30 32 30 35 35 32 39 49 55 54 46 25 359 357 3 128 134 147 165 177 198 206 192 187 192 191 188 187 184 180 177 170 161 156 154 156 162 165 173 188 198 208 224 233 224 199 182 178 181 179 174 177 183 182 184 196 204 206 213 217 212 217 231
85 74 68 72 73 68 53 25 10 20 34 39 39 40 43 43 36 34 41 39 13 355 0 16 26 25 26 33 34 32 39 51 55 51 44 29 10 334 270 235 211 213 208 200 203 198 183 190 198 197 199 201 195 192 191 185 178 178 174 167 187 248 231 203 207 215 217 208 194 187 188 188 185 176 169 170 174 177 188 204 208 207 210 213 214 221 227
80 78 107 118 113 106 113 125 97 28 31 38 42 47 55 56 47 35 28 18 11 14 16 20 27 27 28 36 39 37 41 48 45 38 32 28 36 63 115 173 211 235 233 223 219 206 191 203 206 200 202 205 203 203 205 201 202 213 220 221 244 266 258 224 201 190 181 180 187 197 201 195 181 169 165 174 187 193 198 206 209 209 210 209 217 228 233
148 148 137 129 123 118 123 128 117 62 45 49 51 54 60 63 61 54 49 42 37 34 31 32 36 38 39 41 42 39 40 42 38 32 26 21 20 25 40 58 65 52 300 244 234 225 218 216 208 196 199 205 205 209 216 217 223 237 242 234 228 228 210 186 176 173 171 171 177 183 180 172 167 165 167 180 194 199 205 209 210 212 214 212 220 236 241
142 134 123 115 109 106 104 98 85 74 65 55 51 51 55 58 57 50 51 52 48 47 45 44 43 42 42 41 40 39 39 39 35 30 25 19 17 21 23 25 36 50 47 14 265 234 232 224 207 197 199 204 205 210 218 220 222 232 236 227 206 195 187 178 176 182 182 168 159 165 174 177 179 180 180 186 195 200 206 211 212 212 210 205 212 234 245
130 131 124 111 98 94 93 84 78 79 71 61 59 56 51 51 49 43 42 42 42 43 44 43 43 44 42 40 39 37 36 35 32 27 20 16 20 27 28 33 45 54 45 20 16 52 173 203 196 189 189 196 200 205 210 209 209 218 221 203 181 180 182 179 179 187 186 174 175 190 199 200 200 200 194 194 196 195 199 207 208 203 199 196 198 212 226
111 118 119 104 85 81 80 72 69 71 68 64 63 58 52 50 47 43 40 38 39 43 46 45 45 46 44 43 43 39 34 33 33 28 22 22 26 26 30 44 50 52 56 61 59 60 147 168 172 175 181 188 193 200 206 209 206 201 193 187 184 184 181 177 176 180 178 173 178 188 190 185 187 193 196 196 194 190 191 195 195 189 191 194 196 201 212
105 103 99 92 82 75 70 66 66 64 58 54 52 50 48 51 51 50 50 48 47 50 51 49 47 47 46 45 45 40 35 35 36 32 28 29 32 31 32 34 36 51 86 91 80 63 122 126 129 140 157 162 167 181 194 198 196 186 177 180 188 188 183 179 179 179 177 175 176 179 181 185 191 190 186 182 184 184 185 187 185 186 193 198 201 209 219
104 104 103 99 93 86 79 73 69 62 55 51 48 45 44 44 46 49 49 47 46 47 48 47 45 44 42 42 41 37 34 35 36 35 34 36 40 44 40 33 32 52 79 86 85 99 111 108 108 121 136 136 142 163 177 186 195 194 180 169 170 173 173 174 174 173 173 175 178 180 182 185 183 177 173 173 177 179 181 181 181 185 197 206 213 222 228
103 103 102 98 93 90 86 80 75 69 64 59 53 49 47 46 47 47 45 42 42 43 45 48 48 45 43 43 40 36 35 34 34 35 38 38 42 46 44 36 34 46 64 74 73 81 93 98 104 118 123 123 142 160 159 159 168 172 161 160 167 172 170 168 170 173 173 174 178 181 182 181 179 177 177 178 179 181 184 189 193 201 211 220 227 234 238
101 98 95 92 89 86 84 81 78 74 69 63 60 58 56 53 53 51 48 47 49 50 51 53 53 50 48 47 43 39 37 33 30 32 36 37 39 41 39 34 31 39 61 72 68 68 78 87 96 110 116 125 157 162 149 138 142 156 161 166 172 176 172 169 171 176 177 178 181 182 180 179 180 179 179 183 187 190 194 200 209 221 229 237 246 251 251
104 99 94 91 86 82 78 78 77 74 69 64 60 60 58 56 55 55 53 51 51 52 52 51 50 47 45 43 41 40 37 32 29 30 32 34 39 40 36 30 28 35 56 66 62 66 85 93 104 132 145 153 166 162 147 140 153 165 167 167 170 171 170 170 174 179 180 181 181 180 178 181 185 186 187 192 197 202 208 216 229 244 252 259 263 263 262
105 101 98 95 90 83 77 74 73 71 68 62 56 53 51 50 50 51 51 51 51 51 51 49 46 43 40 36 33 33 32 29 29 31 31 32 34 32 28 26 28 30 44 53 43 59 102 118 143 168 170 169 162 149 142 153 169 168 165 167 170 171 170 171 174 177 179 180 181 182 183 188 193 196 200 205 209 215 225 234 243 252 257 262 267 268 267
106 103 99 92 86 82 78 73 69 68 67 64 57 50 46 46 46 46 46 48 47 47 47 45 42 39 37 33 30 28 26 24 24 26 28 31 31 24 14 12 15 6 315 287 330 4 156 177 187 191 189 177 150 131 132 164 179 171 169 171 171 172 175 176 176 178 183 186 187 189 194 201 206 209 213 215 215 219 224 228 237 250 255 258 267 275 276
107 100 93 82 72 69 69 68 66 65 64 63 56 48 42 41 41 41 40 40 40 39 40 39 35 33 31 30 29 27 25 22 23 25 23 19 17 12 5 2 1 357 342 322 315 287 220 201 198 208 218 200 157 135 144 181 181 174 182 188 186 186 189 186 182 187 196 197 198 203 210 214 215 216 216 214 212 214 218 223 235 251 255 256 266 278 283
106 88 77 69 62 59 58 59 62 64 61 55 50 45 39 35 34 34 34 32 31 30 31 30 27 24 23 24 25 25 23 22 24 25 21 12 5 2 359 352 346 343 333 309 274 239 220 215 212 213 216 209 184 167 177 191 186 180 184 188 189 196 202 200 198 203 209 211 213 216 216 213 212 214 214 214 216 221 226 229 238 249 255 260 268 277 284
108 96 81 68 62 60 58 58 61 65 61 54 48 42 34 31 31 34 32 29 25 23 23 23 20 14 9 10 15 17 17 16 17 19 16 11 5 2 358 353 351 347 326 290 263 241 229 234 243 246 240 230 218 208 206 206 204 205 206 203 199 202 206 207 209 212 216 218 219 217 214 214 217 219 218 220 225 230 232 234 241 252 257 260 266 274 281
102 104 89 70 62 60 56 54 55 55 52 48 43 33 22 19 23 25 24 22 21 19 17 18 18 13 7 6 4 360 357 357 357 354 351 351 351 351 350 351 354 354 345 319 289 270 257 254 261 269 272 269 258 244 234 225 219 219 222 222 220 220 220 218 217 216 216 217 218 218 218 220 223 225 228 233 238 240 239 241 246 251 252 254 263 274 279
82 99 88 67 58 51 43 40 44 46 39 32 25 13 3 3 12 16 13 12 12 12 10 9 8 7 5 5 2 354 350 351 350 344 338 335 332 329 326 324 328 338 344 338 316 298 288 279 271 270 272 270 264 257 251 242 233 230 230 229 229 230 231 230 227 224 222 221 223 225 225 227 230 234 238 240 242 244 246 249 251 252 253 257 264 271 271
57 71 70 50 40 31 22 20 23 24 22 17 8 359 358 0 2 3 0 356 354 356 358 357 355 353 351 348 346 345 343 343 343 343 343 340 333 326 321 315 310 312 317 318 311 302 298 292 287 287 285 275 265 262 261 255 245 241 240 240 238 238 237 236 235 235 235 233 234 234 233 233 236 240 241 243 245 248 250 249 247 248 254 259 262 263 261
36 23 8 15 11 356 348 349 347 347 357 3 356 348 349 348 344 344 349 348 343 341 340 339 338 340 339 338 336 336 334 332 331 330 330 329 328 326 323 319 312 307 304 299 293 289 288 285 287 295 299 291 278 270 267 263 257 254 252 249 247 246 245 243 242 242 240 240 242 243 242 240 241 243 244 245 246 244 244 246 250 253 255 258 260 261 262